Weather History for Siemreap, Cambodia

Change the Weather History Date:

Friday, November 15, 2013

  Actual Average Record
Temperature  
Mean Temperature 78 °F -  
Max Temperature 82 °F - - ()
Min Temperature 73 °F - - ()
Cooling Degree Days 12    
Growing Degree Days 28 (Base 50)    
Moisture  
Dew Point 72 °F    
Average Humidity 80    
Maximum Humidity 94    
Minimum Humidity 70    
Precipitation  
Precipitation 0.00 in - - ()
Sea Level Pressure  
Sea Level Pressure 29.82 in    
Wind  
Wind Speed 7 mph ()    
Max Wind Speed 16 mph    
Max Gust Speed -    
Visibility 5.9 miles    
Events Rain    
T = Trace of Precipitation, MM = Missing Value Source: Averaged Metar Reports

Daily Weather History Graph

Daily Weather History Graph

Search for Another Location

Airport:

Trip Planner

Search our weather history database for the weather conditions in past years. The results will help you decide how hot, cold, wet, or windy it might be!

Date:

Astronomy

Nov. 15, 2013 Rise Set
Actual Time 6:03 AM ICT 5:34 PM ICT
Civil Twilight 5:41 AM ICT 5:56 PM ICT
Nautical Twilight 5:15 AM ICT 6:22 PM ICT
Astronomical Twilight 4:49 AM ICT 6:48 PM ICT
Moon 3:54 PM ICT 3:49 AM ICT
Length of Visible Light 12h 15m
Length of Day
11h 30m
Waxing Gibbous, 94% of the Moon is Illuminated
Nov 15
Waxing Gibbous
Nov 17
Full
Nov 26
Last Quarter
Dec 3
New
Dec 9
First Quarter

Hourly Weather History & Observations

Time (ICT) Temp. Heat Index Dew Point Humidity Pressure Visibility Wind Dir Wind Speed Gust Speed Precip Events Conditions
12:00 AM 78.8 °F - 75.2 °F 89% 29.80 in 5.0 mi NNW 5.8 mph - N/A   Scattered Clouds
12:30 AM 78.8 °F - 75.2 °F 89% 29.80 in 5.0 mi NNW 3.5 mph - N/A   Scattered Clouds
1:00 AM 78.8 °F - 75.2 °F 89% 29.80 in 5.0 mi NNW 3.5 mph - N/A   Scattered Clouds
7:00 AM 77.0 °F - 71.6 °F 83% 29.80 in 5.6 mi North 5.8 mph - N/A   Mostly Cloudy
7:30 AM 77.0 °F - 71.6 °F 83% 29.80 in 5.6 mi NNE 6.9 mph - N/A   Mostly Cloudy
8:00 AM 77.0 °F - 71.6 °F 83% 29.83 in 5.6 mi NE 8.1 mph - N/A   Mostly Cloudy
8:30 AM 78.8 °F - 71.6 °F 78% 29.86 in 6.2 mi NNE 5.8 mph - N/A   Mostly Cloudy
9:00 AM 78.8 °F - 71.6 °F 78% 29.86 in 6.2 mi NE 6.9 mph - N/A   Mostly Cloudy
9:30 AM 80.6 °F 84.6 °F 71.6 °F 74% 29.86 in 6.2 mi NNE 6.9 mph - N/A   Mostly Cloudy
10:00 AM 80.6 °F 84.6 °F 71.6 °F 74% 29.86 in 6.2 mi NNE 9.2 mph - N/A   Mostly Cloudy
10:30 AM 80.6 °F 84.6 °F 71.6 °F 74% 29.86 in 6.2 mi NNE 8.1 mph - N/A   Mostly Cloudy
11:00 AM 80.6 °F 84.6 °F 71.6 °F 74% 29.83 in 6.2 mi NNE 8.1 mph - N/A   Mostly Cloudy
11:30 AM 82.4 °F 88.2 °F 73.4 °F 74% 29.83 in 6.2 mi North 6.9 mph - N/A   Mostly Cloudy
12:00 PM 82.4 °F 87.2 °F 71.6 °F 70% 29.83 in 6.2 mi NE 10.4 mph - N/A   Mostly Cloudy
12:30 PM 82.4 °F 88.2 °F 73.4 °F 74% 29.80 in 6.2 mi NNE 8.1 mph - N/A   Mostly Cloudy
1:00 PM 82.4 °F 87.2 °F 71.6 °F 70% 29.80 in 6.2 mi NE 11.5 mph - N/A   Mostly Cloudy
1:30 PM 82.4 °F 87.2 °F 71.6 °F 70% 29.80 in 6.2 mi NE 16.1 mph - N/A   Mostly Cloudy
2:00 PM 82.4 °F 87.2 °F 71.6 °F 70% 29.77 in 6.2 mi NE 13.8 mph - N/A   Mostly Cloudy
2:30 PM 82.4 °F 88.2 °F 73.4 °F 74% 29.77 in 6.2 mi NE 11.5 mph - N/A   Mostly Cloudy
3:00 PM 80.6 °F 84.6 °F 71.6 °F 74% 29.77 in 6.2 mi NE 11.5 mph - N/A   Mostly Cloudy
3:30 PM 80.6 °F 83.9 °F 69.8 °F 70% 29.77 in 6.2 mi NE 16.1 mph - N/A   Mostly Cloudy
4:00 PM 80.6 °F 83.9 °F 69.8 °F 70% 29.77 in 6.2 mi NE 13.8 mph - N/A   Mostly Cloudy
4:30 PM 80.6 °F 84.6 °F 71.6 °F 74% 29.77 in 6.2 mi NE 12.7 mph - N/A   Mostly Cloudy
5:00 PM 78.8 °F - 69.8 °F 74% 29.77 in 6.2 mi NE 13.8 mph - N/A   Mostly Cloudy
5:30 PM 78.8 °F - 69.8 °F 74% 29.80 in 6.2 mi NNE 8.1 mph - N/A   Mostly Cloudy
6:00 PM 77.0 °F - 69.8 °F 78% 29.80 in 6.2 mi NNE 9.2 mph - N/A   Mostly Cloudy
6:30 PM 77.0 °F - 69.8 °F 78% 29.83 in 6.2 mi North 9.2 mph - N/A   Mostly Cloudy
7:00 PM 77.0 °F - 69.8 °F 78% 29.83 in 5.0 mi ENE 9.2 mph - N/A Rain Light Rain
7:30 PM 73.4 °F - 69.8 °F 88% 29.83 in 5.0 mi NNE 9.2 mph - N/A Rain Rain
8:00 PM 73.4 °F - 69.8 °F 88% 29.86 in 5.6 mi North 9.2 mph - N/A   Mostly Cloudy
8:30 PM 73.4 °F - 69.8 °F 88% 29.83 in 5.6 mi NNW 9.2 mph - N/A   Mostly Cloudy
9:00 PM 73.4 °F - 69.8 °F 88% 29.86 in 5.6 mi NNW 9.2 mph - N/A   Mostly Cloudy
9:30 PM 73.4 °F - 71.6 °F 94% 29.86 in 5.6 mi NNW 9.2 mph - N/A   Mostly Cloudy
10:00 PM 73.4 °F - 71.6 °F 94% 29.86 in 5.6 mi NNW 9.2 mph - N/A   Mostly Cloudy
10:30 PM 75.2 °F - 71.6 °F 89% 29.86 in 5.6 mi NNW 9.2 mph - N/A   Mostly Cloudy
11:00 PM 75.2 °F - 71.6 °F 89% 29.86 in 5.6 mi North 5.8 mph - N/A   Mostly Cloudy
11:30 PM 75.2 °F - 71.6 °F 89% 29.86 in 5.6 mi North 5.8 mph - N/A   Mostly Cloudy